TimeMDT,TemperatureF,Dew PointF,Humidity,Sea Level PressureIn,VisibilityMPH,Wind Direction,Wind SpeedMPH,Gust SpeedMPH,PrecipitationIn,Events,Conditions,WindDirDegrees,DateUTC
12:55 AM,51.4,36.0,56,30.07,10.0,ESE,15.0,-,N/A,,Clear,110,2012-10-15 06:55:00
1:55 AM,49.6,35.6,59,30.06,10.0,ESE,13.8,-,N/A,,Clear,110,2012-10-15 07:55:00
2:55 AM,48.4,35.6,61,30.06,10.0,ESE,12.7,-,N/A,,Clear,110,2012-10-15 08:55:00
3:55 AM,48.4,35.2,60,30.03,10.0,ESE,16.1,-,N/A,,Clear,110,2012-10-15 09:55:00
4:55 AM,47.8,35.6,63,30.03,10.0,ESE,12.7,-,N/A,,Clear,110,2012-10-15 10:55:00
5:55 AM,47.1,35.8,65,30.02,10.0,East,11.5,-,N/A,,Clear,100,2012-10-15 11:55:00
6:55 AM,46.8,35.2,64,30.04,10.0,ESE,15.0,-,N/A,,Clear,110,2012-10-15 12:55:00
7:55 AM,46.2,35.2,66,30.05,10.0,ESE,13.8,-,N/A,,Clear,110,2012-10-15 13:55:00
8:55 AM,49.5,35.2,58,30.06,10.0,ESE,15.0,-,N/A,,Clear,110,2012-10-15 14:55:00
9:55 AM,51.6,36.0,55,30.08,10.0,ESE,12.7,-,N/A,,Clear,110,2012-10-15 15:55:00
10:55 AM,56.1,37.0,49,30.04,10.0,ESE,8.1,-,N/A,,Scattered Clouds,110,2012-10-15 16:55:00
11:55 AM,60.4,37.6,43,30.02,10.0,South,6.9,-,N/A,,Partly Cloudy,190,2012-10-15 17:55:00
12:55 PM,64.2,37.2,37,30.00,10.0,SW,8.1,-,N/A,,Scattered Clouds,230,2012-10-15 18:55:00
1:55 PM,65.5,36.9,35,29.98,10.0,Calm,Calm,-,N/A,,Clear,0,2012-10-15 19:55:00
2:55 PM,67.1,36.3,32,29.96,10.0,Variable,4.6,-,N/A,,Clear,0,2012-10-15 20:55:00
3:55 PM,65.8,35.1,32,29.95,10.0,WSW,6.9,-,N/A,,Clear,240,2012-10-15 21:55:00
4:55 PM,67.3,34.7,30,29.94,10.0,SW,3.5,-,N/A,,Scattered Clouds,230,2012-10-15 22:55:00
5:55 PM,66.0,33.1,29,29.93,10.0,NNE,3.5,-,N/A,,Partly Cloudy,30,2012-10-15 23:55:00
6:55 PM,63.3,32.2,31,29.93,10.0,ESE,3.5,-,N/A,,Clear,120,2012-10-16 00:55:00
7:55 PM,59.0,34.3,40,29.95,10.0,ESE,8.1,-,N/A,,Clear,110,2012-10-16 01:55:00
8:55 PM,58.1,32.9,39,29.95,10.0,ESE,8.1,-,N/A,,Partly Cloudy,120,2012-10-16 02:55:00
9:04 PM,59.0,32.0,36,29.95,10.0,ESE,6.9,-,N/A,,Mostly Cloudy,120,2012-10-16 03:04:00
9:23 PM,59.0,33.8,39,29.95,10.0,ESE,9.2,-,N/A,,Overcast,110,2012-10-16 03:23:00
9:55 PM,56.1,33.6,43,29.95,10.0,ESE,10.4,-,N/A,,Partly Cloudy,120,2012-10-16 03:55:00
10:55 PM,55.6,33.3,43,29.91,10.0,ESE,11.5,-,N/A,,Clear,110,2012-10-16 04:55:00
11:55 PM,54.5,33.6,45,29.89,10.0,ESE,12.7,-,N/A,,Clear,110,2012-10-16 05:55:00